Weather History for Williamsport, PA

Change the Weather History Date:

Friday, May 16, 2014

  Actual Average Record
Temperature  
Mean Temperature 60 °F 60 °F  
Max Temperature 69 °F 72 °F 90 °F (1962)
Min Temperature 50 °F 48 °F 33 °F (1973)
Degree Days  
Heating Degree Days 5 6  
Month to date heating degree days 86 132  
Since 1 July heating degree days 6401 5887  
Cooling Degree Days 0 1  
Month to date cooling degree days 24 11  
Year to date cooling degree days 33 16  
Growing Degree Days 6 (Base 50)    
Moisture  
Dew Point 53 °F    
Average Humidity 84    
Maximum Humidity 93    
Minimum Humidity 75    
Precipitation  
Precipitation 2.34 in 0.12 in 2.34 in (2014)
Month to date precipitation 3.15 1.83  
Year to date precipitation 12.71 13.08  
Snow  
Snow 0.00 in - - ()
Month to date snowfall 0.0  
Since 1 July snowfall 45.9  
Snow Depth 0.00 in    
Sea Level Pressure  
Sea Level Pressure 29.85 in    
Wind  
Wind Speed 10 mph (West)    
Max Wind Speed 24 mph    
Max Gust Speed 32 mph    
Visibility 7 miles    
Events Rain    
T = Trace of Precipitation, MM = Missing Value Source: NWS Daily Summary

Daily Weather History Graph

Daily Weather History Graph

Search for Another Location

Airport:

Trip Planner

Search our weather history database for the weather conditions in past years. The results will help you decide how hot, cold, wet, or windy it might be!

Date:

Astronomy

May. 16, 2014 Rise Set
Actual Time 5:48 AM EDT 8:20 PM EDT
Civil Twilight 5:16 AM EDT 8:52 PM EDT
Nautical Twilight 4:37 AM EDT 9:31 PM EDT
Astronomical Twilight 3:53 AM EDT 10:15 PM EDT
Moon 10:25 PM EDT (5/16) 7:27 AM EDT (5/16)
Length of Visible Light 15h 35m
Length of Day
14h 32m
Waning Gibbous, 95% of the Moon is Illuminated
May 16
Waning Gibbous
May 21
Last Quarter
May 28
New
Jun 5
First Quarter
Jun 13
Full

Hourly Weather History & Observations

Time (EDT) Temp. Dew Point Humidity Pressure Visibility Wind Dir Wind Speed Gust Speed Precip Events Conditions
12:02 AM 66.9 °F 63.0 °F 87% 29.90 in 10.0 mi East 9.2 mph - N/A   Overcast
12:54 AM 69.1 °F 63.0 °F 81% 29.87 in 7.0 mi East 13.8 mph - 0.02 in Rain Rain
1:54 AM 69.1 °F 63.0 °F 81% 29.84 in 10.0 mi East 16.1 mph 25.3 mph 0.04 in Rain Light Rain
2:03 AM 68.0 °F 63.0 °F 84% 29.84 in 8.0 mi East 17.3 mph 25.3 mph 0.01 in Rain Rain
2:10 AM 68.0 °F 63.0 °F 84% 29.84 in 6.0 mi East 13.8 mph 20.7 mph 0.02 in Rain Rain
2:31 AM 68.0 °F 63.0 °F 84% 29.82 in 4.0 mi East 19.6 mph 23.0 mph 0.09 in Rain Heavy Rain
2:54 AM 68.0 °F 62.1 °F 81% 29.79 in 8.0 mi East 18.4 mph 31.1 mph 0.11 in Rain Light Rain
3:38 AM 59.0 °F 55.9 °F 90% 29.81 in 2.0 mi West 15.0 mph - 0.18 in Rain Heavy Rain
3:54 AM 57.9 °F 55.9 °F 93% 29.79 in 1.5 mi Variable 5.8 mph - 0.34 in Rain Heavy Rain
4:00 AM 57.9 °F 55.9 °F 93% 29.78 in 2.0 mi WNW 4.6 mph - 0.06 in Rain Heavy Rain
4:10 AM 57.9 °F 55.9 °F 93% 29.78 in 5.0 mi Calm Calm - 0.09 in Rain Rain
4:54 AM 57.0 °F 55.0 °F 93% 29.78 in 3.0 mi West 17.3 mph 23.0 mph 0.31 in Rain Heavy Rain
5:04 AM 55.9 °F 54.0 °F 93% 29.79 in 2.0 mi West 19.6 mph 29.9 mph 0.09 in Rain Heavy Rain
5:12 AM 55.9 °F 54.0 °F 93% 29.81 in 1.2 mi West 16.1 mph 29.9 mph 0.25 in Rain Heavy Rain
5:28 AM 55.9 °F 54.0 °F 93% 29.81 in 3.0 mi West 9.2 mph - 0.50 in Rain Rain
5:43 AM 55.0 °F 54.0 °F 96% 29.80 in 2.5 mi WNW 9.2 mph - 0.58 in Rain Heavy Rain
5:54 AM 55.0 °F 53.1 °F 93% 29.79 in 2.0 mi West 8.1 mph - 0.67 in Rain Heavy Rain
6:06 AM 55.0 °F 53.1 °F 93% 29.79 in 4.0 mi West 12.7 mph - 0.05 in Rain Heavy Rain
6:47 AM 54.0 °F 52.0 °F 93% 29.83 in 2.5 mi West 15.0 mph - 0.26 in Rain Heavy Rain
6:54 AM 54.0 °F 52.0 °F 93% 29.83 in 2.0 mi West 12.7 mph 23.0 mph 0.30 in Rain Heavy Rain
7:15 AM 54.0 °F 52.0 °F 93% 29.84 in 1.8 mi West 13.8 mph 20.7 mph 0.12 in Rain Heavy Rain
7:54 AM 53.1 °F 51.1 °F 93% 29.82 in 2.0 mi West 13.8 mph - 0.41 in Rain Heavy Rain
8:17 AM 53.1 °F 51.1 °F 93% 29.83 in 3.0 mi West 12.7 mph - 0.11 in Rain Heavy Rain
8:50 AM 53.6 °F 51.8 °F 94% 29.83 in 10.0 mi West 13.8 mph - 0.15 in Rain Light Rain
8:54 AM 54.0 °F 52.0 °F 93% 29.83 in 10.0 mi West 12.7 mph - 0.15 in   Overcast
8:57 AM 54.0 °F 52.0 °F 93% 29.84 in 10.0 mi West 10.4 mph - N/A   Overcast
9:46 AM 55.9 °F 52.0 °F 87% 29.86 in 10.0 mi West 5.8 mph - 0.00 in   Overcast
9:54 AM 55.0 °F 52.0 °F 89% 29.86 in 10.0 mi WNW 8.1 mph - 0.00 in   Overcast
10:13 AM 55.0 °F 52.0 °F 89% 29.87 in 6.0 mi WNW 8.1 mph - 0.00 in Rain Light Rain
10:42 AM 55.9 °F 52.0 °F 87% 29.88 in 6.0 mi West 9.2 mph - 0.01 in   Overcast
10:54 AM 55.9 °F 52.0 °F 87% 29.88 in 6.0 mi West 9.2 mph - 0.01 in   Overcast
11:51 AM 55.4 °F 53.6 °F 94% 29.88 in 10.0 mi Variable 4.6 mph - N/A   Overcast
11:54 AM 55.9 °F 52.0 °F 87% 29.88 in 10.0 mi Calm Calm - N/A   Overcast
12:15 PM 55.9 °F 53.1 °F 90% 29.88 in 9.0 mi SSW 3.5 mph - N/A   Overcast
12:54 PM 55.9 °F 52.0 °F 87% 29.87 in 10.0 mi SW 8.1 mph - N/A   Overcast
1:54 PM 57.0 °F 52.0 °F 83% 29.87 in 10.0 mi SW 6.9 mph - N/A   Overcast
2:54 PM 59.0 °F 51.1 °F 75% 29.85 in 10.0 mi WSW 8.1 mph - N/A   Overcast
3:01 PM 57.9 °F 52.0 °F 81% 29.86 in 10.0 mi West 8.1 mph - N/A   Overcast
3:10 PM 57.9 °F 52.0 °F 81% 29.85 in 10.0 mi WSW 9.2 mph - N/A   Overcast
3:54 PM 59.0 °F 51.1 °F 75% 29.84 in 10.0 mi WSW 8.1 mph - N/A   Overcast
4:12 PM 59.0 °F 51.1 °F 75% 29.84 in 10.0 mi WSW 6.9 mph - N/A   Overcast
4:54 PM 57.9 °F 51.1 °F 78% 29.86 in 10.0 mi WSW 12.7 mph - N/A   Overcast
5:54 PM 57.0 °F 52.0 °F 83% 29.86 in 10.0 mi West 11.5 mph - N/A   Overcast
6:29 PM 57.0 °F 51.1 °F 81% 29.87 in 10.0 mi West 12.7 mph - N/A   Overcast
6:37 PM 57.0 °F 51.1 °F 81% 29.87 in 10.0 mi West 13.8 mph - N/A   Overcast
6:54 PM 57.0 °F 50.0 °F 77% 29.87 in 10.0 mi West 10.4 mph - N/A   Overcast
7:31 PM 55.9 °F 48.9 °F 77% 29.89 in 10.0 mi WSW 13.8 mph - N/A   Overcast
7:54 PM 55.9 °F 48.9 °F 77% 29.91 in 10.0 mi WSW 10.4 mph - N/A   Overcast
8:24 PM 55.0 °F 48.9 °F 80% 29.91 in 10.0 mi WNW 9.2 mph - N/A   Overcast
8:54 PM 54.0 °F 48.0 °F 80% 29.92 in 10.0 mi West 6.9 mph - N/A   Overcast
9:54 PM 54.0 °F 48.0 °F 80% 29.94 in 10.0 mi West 3.5 mph - N/A   Overcast
10:54 PM 51.1 °F 48.0 °F 89% 29.94 in 10.0 mi WNW 4.6 mph - N/A   Scattered Clouds
11:54 PM 51.1 °F 46.9 °F 86% 29.93 in 10.0 mi West 6.9 mph - N/A   Clear